Weather Roundup
Issued by NWS

Home | Current Version | Previous Version | Graphics & Text | Print | Product List | Glossary Off
Versions: 1 2 3 4 5 6 7 8 9 10 11 12 13 14 15 16 17 18 19 20 21 22 23 24 25 26 27 28 29 30 31 32 33 34 35 36 37 38 39 40 41 42 43 44 45 46 47 48 49 50

000
NZUS93 KARX 241759
HRRWXR

CURRENT HOURLY OBSERVATIONS ACROSS
MUCH OF THE UPPER MISSISSIPPI VALLEY
NATIONAL WEATHER SERVICE LA CROSSE WI
100 PM CDT FRI APR 24 2015


...SOUTHEAST MINNESOTA...


CITY           SKY/WX    TMP DP  RH WIND       PRES   REMARKS
ROCHESTER      LGT RAIN  46  36  68 SE21G28   29.88F
ROCHESTER/MAYO CLOUDY    43  37  78 SE9G18    29.89S
WINONA         CLOUDY    54  27  35 S6        29.92F
AUSTIN         HVY RAIN  45  37  76 SE18G29   29.84F
ALBERT LEA     HVY RAIN  45  41  87 SE12G17   29.83S
DODGE CENTER   LGT RAIN  45  39  81 SE22      29.83F
PRESTON        CLOUDY    44  32  62 SE13      29.91S
OWATONNA       DRIZZLE   45  37  76 SE17      29.82F
FARIBAULT      DRIZZLE   45  39  81 SE17G23   29.83F
$$

...ELSEWHERE IN MINNESOTA...


CITY           SKY/WX    TMP DP  RH WIND       PRES   REMARKS
MINNEAPOLIS    LGT RAIN  49  36  61 SE12      29.88R
INTNL FALLS    CLOUDY    39  21  48 E8        29.93F WCI  33
DULUTH         CLOUDY    37  29  72 SE13      29.96F WCI  29
RED WING       DRIZZLE   52  32  46 S12       29.89R
REDWOOD FALLS  CLOUDY    52  41  66 SE22      29.73F
MANKATO        CLOUDY    46  36  66 SE17G24   29.81S
WORTHINGTON    CLOUDY    48  41  76 SE16G22   29.70F
FAIRMONT       CLOUDY    46  10  23 SE21G29   29.75F
$$

...SOUTHWEST WISCONSIN...


CITY           SKY/WX    TMP DP  RH WIND       PRES   REMARKS
LA CROSSE      CLOUDY    56  20  24 S16       29.93F
PRAIRIE DU CHI RAIN      47  31  53 SE8       29.97F
BOSCOBEL       LGT RAIN  53  21  28 S7        29.98F
LONE ROCK      NOT AVBL
PLATTEVILLE    CLOUDY    50  27  40 E6        29.99R
FORT MC COY    PTSUNNY   58  15  18 SE14      29.95F
VIROQUA        CLOUDY    51  20  29 S13       29.95F
WIS DELLS      PTSUNNY   54  17  23 S13       29.98F
$$

...ELSEWHERE IN WISCONSIN...


CITY           SKY/WX    TMP DP  RH WIND       PRES   REMARKS
MILWAUKEE      PTSUNNY   48  27  44 SE9       30.05F
MADISON        CLOUDY    52  14  22 S12       30.00F
GREEN BAY      SUNNY     53  25  33 VRB5G17   30.04F
EAU CLAIRE     CLOUDY    57  19  22 SE13      29.91F
BLACK RVR FLS  FAIR      58  11  16 SE8G17    29.94F
MEDFORD        CLOUDY    48  22  35 S10       29.98F
WAUSAU         CLOUDY    52  15  23 SE8       29.97F
WIS RAPIDS     PTSUNNY   57  11  16 S12       29.98F
MARSHFIELD     CLOUDY    57  20  23 S13       29.96F
RICE LAKE      CLOUDY    51  19  27 E12       29.94F
$$

...NORTHEAST IOWA...


CITY           SKY/WX    TMP DP  RH WIND       PRES   REMARKS
DECORAH        CLOUDY    46  32  57 SE17G24   29.91F
MASON CITY     RAIN      43  39  86 SE20G29   29.82F FOG
CHARLES CITY   LGT RAIN  43  39  87 SE18      29.86F
OELWEIN        LGT RAIN  43  37  81 E14G21    29.90F
$$

...ELSEWHERE IN IOWA...


CITY           SKY/WX    TMP DP  RH WIND       PRES   REMARKS
DES MOINES     LGT RAIN  54  47  77 SE5       29.78F
IOWA CITY      CLOUDY    57  30  35 SE17G26   29.85F
FORT DODGE     CLOUDY    45  39  81 SE10      29.78F
$$

...NORTHERN ILLINOIS...


CITY           SKY/WX    TMP DP  RH WIND       PRES   REMARKS
CHICAGO-OHARE  CLOUDY    56  15  20 VRB5      30.00F
CHICAGO-MIDWAY PTSUNNY   59  15  18 VRB6      30.01F
MOLINE         NOT AVBL
ROCKFORD       CLOUDY    54  17  23 SE9       30.01F
PEORIA         PTSUNNY   63  26  24 SE14G22   29.96F
$$

NOTE: "FAIR" INDICATES FEW OR NO CLOUDS BELOW 12,000 FEET WITH NO
SIGNIFICANT WEATHER AND/OR OBSTRUCTIONS TO VISIBILITY. WIND
SPEEDS ARE IN MILES-PER-HOUR.



USA.gov is the U.S. government's official web portal to all federal, state and local government web resources and services.